TimeMDT,TemperatureF,Dew PointF,Humidity,Sea Level PressureIn,VisibilityMPH,Wind Direction,Wind SpeedMPH,Gust SpeedMPH,PrecipitationIn,Events,Conditions,WindDirDegrees,DateUTC
12:55 AM,59.0,40.1,50,29.75,10.0,NNE,6.9,-,N/A,,Clear,30,2012-10-03 06:55:00
1:55 AM,57.0,39.4,52,29.75,10.0,ENE,6.9,-,N/A,,Clear,60,2012-10-03 07:55:00
2:55 AM,56.5,38.8,52,29.75,10.0,ENE,6.9,-,N/A,,Clear,70,2012-10-03 08:55:00
3:55 AM,55.0,38.5,54,29.75,10.0,ENE,3.5,-,N/A,,Clear,70,2012-10-03 09:55:00
4:55 AM,53.8,37.9,55,29.78,10.0,NNE,4.6,-,N/A,,Clear,30,2012-10-03 10:55:00
5:55 AM,53.8,37.8,55,29.79,10.0,East,6.9,-,N/A,,Clear,90,2012-10-03 11:55:00
6:55 AM,52.3,37.8,58,29.81,10.0,Calm,Calm,-,N/A,,Clear,0,2012-10-03 12:55:00
7:55 AM,52.7,38.3,58,29.84,10.0,Calm,Calm,-,N/A,,Clear,0,2012-10-03 13:55:00
8:55 AM,65.7,39.0,38,29.83,10.0,Calm,Calm,-,N/A,,Clear,0,2012-10-03 14:55:00
9:55 AM,70.5,37.2,30,29.86,10.0,SSE,3.5,-,N/A,,Clear,160,2012-10-03 15:55:00
10:55 AM,75.4,38.5,26,29.85,10.0,Calm,Calm,-,N/A,,Clear,0,2012-10-03 16:55:00
11:55 AM,80.1,34.7,19,29.83,10.0,Calm,Calm,-,N/A,,Clear,0,2012-10-03 17:55:00
12:55 PM,85.1,31.8,15,29.80,10.0,SSW,5.8,-,N/A,,Clear,200,2012-10-03 18:55:00
1:55 PM,88.3,25.9,10,29.77,10.0,WNW,5.8,-,N/A,,Clear,300,2012-10-03 19:55:00
2:55 PM,89.2,23.9,9,29.75,10.0,West,8.1,-,N/A,,Clear,260,2012-10-03 20:55:00
3:55 PM,89.2,21.2,8,29.75,10.0,West,5.8,-,N/A,,Clear,260,2012-10-03 21:55:00
4:55 PM,89.4,21.2,8,29.74,10.0,Calm,Calm,-,N/A,,Clear,0,2012-10-03 22:55:00
5:55 PM,89.2,23.4,9,29.74,10.0,SSW,5.8,-,N/A,,Clear,210,2012-10-03 23:55:00
6:55 PM,83.5,30.0,14,29.76,10.0,South,6.9,-,N/A,,Clear,190,2012-10-04 00:55:00
7:21 PM,80.6,30.2,16,29.78,5.0,South,6.9,-,N/A,,Haze,190,2012-10-04 01:21:00
7:34 PM,78.8,30.2,17,29.80,6.0,SW,9.2,-,N/A,,Haze,220,2012-10-04 01:34:00
7:55 PM,79.7,29.3,16,29.79,10.0,SW,5.8,-,N/A,,Clear,230,2012-10-04 01:55:00
8:55 PM,75.7,29.8,19,29.80,10.0,West,9.2,-,N/A,,Clear,260,2012-10-04 02:55:00
9:55 PM,72.9,31.1,21,29.81,10.0,ESE,6.9,-,N/A,,Clear,120,2012-10-04 03:55:00
10:55 PM,74.1,29.8,20,29.81,10.0,ESE,5.8,-,N/A,,Clear,120,2012-10-04 04:55:00
11:55 PM,68.0,31.6,26,29.83,10.0,South,6.9,-,N/A,,Clear,190,2012-10-04 05:55:00